Wetbulb
52.98 50.06 48.99 50.54 41.24 36.79 33.17 38.42 40.91 43.56 44.56 44.88 47.92 46.68 45.52 48.05 47.51 42.54 51.15 51.36 52.17 53.53 59.60 62.73 66.49 71.01 72.62 73.16 73.00 72.96 72.99 72.86 72.71 72.23 72.02 71.91 71.91 71.77 71.35 71.30 71.94 71.93 70.91 70.38 69.94 69.61 69.12 69.08 69.63
50.84 52.24 53.71 47.40 35.33 32.18 32.52 37.55 38.97 41.53 42.91 45.05 46.10 46.31 45.94 45.01 47.76 46.55 46.35 49.43 51.59 52.48 56.72 58.71 64.09 68.26 71.38 72.06 72.18 72.09 72.39 72.26 72.67 72.49 72.08 72.00 72.12 71.81 71.32 70.95 71.57 71.16 70.69 70.25 69.42 69.15 69.25 70.02 70.11
51.43 52.13 46.88 41.22 34.03 29.48 31.24 36.70 38.89 42.14 42.93 42.57 42.22 44.58 45.95 45.73 45.48 44.96 46.36 48.39 48.90 50.44 53.93 58.04 61.41 64.94 68.17 70.91 71.59 71.64 71.76 72.06 72.58 72.90 72.78 72.44 72.25 72.11 72.01 71.66 71.32 71.25 71.40 70.20 69.66 69.65 69.69 69.86 69.99
47.05 47.40 42.61 35.53 32.67 36.06 35.12 37.01 40.20 40.38 43.31 44.07 41.14 40.29 46.07 46.95 46.04 44.78 46.75 47.59 47.12 47.54 52.68 58.45 60.03 59.86 63.20 64.87 69.89 71.34 71.34 72.08 72.07 72.24 72.45 72.78 72.67 72.22 71.75 71.50 71.07 70.79 70.89 71.11 70.61 70.96 69.88 69.52 69.76
45.94 41.86 34.57 30.82 31.97 34.53 36.42 38.50 39.41 39.02 38.13 39.93 40.56 37.28 42.41 44.73 44.69 44.68 44.87 46.87 46.65 46.96 51.47 54.11 59.92 58.29 58.72 60.33 63.43 68.06 71.08 71.40 72.04 71.82 71.96 71.99 72.16 71.67 71.54 71.43 70.94 70.84 70.87 70.50 70.73 70.93 70.34 69.44 69.24
39.49 37.38 30.16 28.09 31.35 35.37 35.47 36.98 36.79 36.15 36.77 37.57 37.59 35.23 40.39 43.78 43.96 43.57 45.72 45.69 47.09 46.70 49.93 52.82 56.26 58.55 58.22 58.80 58.31 62.39 67.36 70.49 70.78 71.42 71.35 71.54 71.22 70.88 71.46 71.42 71.01 70.62 70.80 70.44 70.42 70.24 69.85 69.28 68.64
36.55 33.43 28.45 28.86 31.75 33.59 35.24 36.20 34.61 33.29 34.96 35.17 36.31 34.22 40.40 40.49 43.88 45.06 45.29 46.33 47.33 48.45 48.49 48.88 50.65 53.45 56.13 58.08 59.55 59.10 62.08 65.05 69.04 70.10 70.29 69.79 69.14 69.32 69.74 70.19 70.55 70.55 70.43 70.06 69.77 69.82 69.12 68.84 68.21
38.06 34.74 29.31 28.24 29.57 30.79 35.49 35.09 34.36 34.14 33.17 37.40 37.39 33.32 33.65 38.09 44.47 45.50 45.52 45.85 46.55 47.98 47.77 47.60 48.87 49.89 50.20 53.43 57.16 59.48 61.14 62.05 65.38 67.07 67.23 66.46 66.29 66.65 67.26 66.70 68.23 70.02 70.08 69.80 69.34 68.87 68.69 68.07 67.59
38.61 28.97 26.03 28.37 29.57 30.84 33.91 32.88 35.01 35.69 32.56 33.73 36.21 35.27 39.57 43.65 44.85 43.54 42.93 43.59 44.85 46.63 46.75 47.48 47.69 48.19 49.53 50.94 53.36 57.33 60.36 61.29 62.97 64.39 63.91 63.99 66.84 67.04 66.24 65.81 66.60 68.66 68.68 69.36 68.91 68.60 67.98 66.62 65.63
33.35 26.92 28.47 30.68 29.45 29.14 32.64 32.67 32.80 32.81 33.21 33.12 35.88 40.38 42.42 43.34 42.24 41.24 40.73 40.50 41.55 42.49 44.64 46.82 46.66 47.71 49.02 50.87 50.73 53.07 59.00 60.30 62.95 66.07 67.10 65.78 66.17 66.79 67.08 64.44 64.02 66.04 66.29 67.39 68.39 67.90 66.28 63.97 63.33
32.83 28.95 32.92 32.88 34.27 34.35 33.99 33.45 35.56 33.09 31.22 32.76 34.18 37.59 40.41 40.82 41.27 41.19 40.20 40.06 40.69 42.19 43.20 44.62 45.10 46.04 46.48 48.18 49.66 51.69 54.98 58.92 60.15 62.37 66.68 67.03 66.39 65.49 65.57 66.19 65.44 65.94 62.67 66.09 66.86 66.12 64.61 62.90 61.14
31.26 35.56 35.44 35.95 37.41 35.66 33.55 35.43 33.66 33.85 34.11 38.23 37.30 38.41 39.61 39.86 39.99 40.07 39.51 39.75 39.79 40.24 41.54 42.78 43.84 44.61 45.20 46.53 48.10 48.84 50.32 55.42 58.59 59.46 61.19 65.69 65.90 65.64 65.24 65.28 65.63 65.57 65.61 65.10 65.07 64.51 62.77 61.67 60.54
32.31 34.47 37.39 37.67 37.32 35.85 37.06 33.74 33.27 34.30 36.81 38.49 39.72 40.66 38.92 38.92 39.00 39.00 39.70 39.95 39.48 39.31 40.44 41.02 42.11 43.05 44.45 44.83 46.65 48.15 47.89 50.31 55.65 59.48 60.01 61.17 65.09 65.32 65.28 65.06 65.34 65.00 65.27 65.01 64.42 63.28 61.56 60.76 59.77
34.29 35.10 35.15 36.73 36.61 36.81 34.52 32.53 33.25 34.43 37.36 37.62 39.10 38.90 38.89 38.03 37.47 37.47 38.26 38.61 38.39 39.72 39.48 40.75 41.39 42.27 43.62 43.89 44.21 45.37 47.77 48.91 50.66 53.94 56.98 58.67 59.75 63.57 65.24 65.08 65.37 64.65 64.90 64.78 63.90 62.67 60.86 60.10 59.77
35.49 30.76 33.87 34.84 36.01 34.21 34.40 30.49 30.08 35.17 37.17 36.85 37.81 38.64 37.55 37.17 37.90 37.00 38.26 38.37 38.50 39.16 39.53 39.68 40.65 41.92 41.94 42.64 43.48 44.92 46.39 48.40 49.39 52.64 55.40 57.18 57.80 58.66 60.39 64.59 64.99 65.26 65.02 64.33 63.31 62.30 61.58 59.71 59.36
31.42 29.27 23.79 33.51 34.97 35.46 32.91 23.96 32.95 36.03 34.79 34.80 35.21 35.70 35.71 36.60 37.64 37.57 38.58 37.99 37.76 37.50 37.78 38.92 40.69 40.04 40.75 41.50 42.84 44.18 45.48 46.64 47.65 49.07 51.47 54.38 56.27 57.58 58.71 60.23 63.28 64.48 65.02 64.11 62.85 61.73 60.48 59.49 58.66
25.99 14.88 22.70 27.21 35.10 33.69 30.87 27.08 33.39 35.85 35.21 32.50 32.08 32.16 34.42 35.39 36.53 36.94 37.14 36.52 36.84 36.73 37.21 37.69 38.82 39.15 39.93 40.91 42.43 43.72 45.00 45.77 46.86 48.39 50.62 53.58 55.51 58.00 59.05 61.13 62.05 63.05 64.20 63.84 63.04 61.47 60.59 59.12 58.20
15.47 16.94 24.09 23.79 30.70 32.60 28.79 27.88 33.18 33.79 33.39 31.17 30.36 31.24 32.67 33.37 34.80 36.53 36.32 36.31 36.30 35.73 36.36 37.06 38.09 38.86 39.62 40.88 41.44 42.86 44.29 45.16 46.25 47.35 49.55 52.39 53.38 55.04 57.50 60.98 62.18 62.24 63.10 62.64 62.15 61.41 61.16 59.84 58.92
26.46 23.68 21.92 26.92 32.71 28.12 27.84 28.16 30.53 32.83 30.90 29.57 28.75 28.75 30.95 31.98 34.71 34.90 35.13 34.61 34.78 34.86 35.21 35.90 35.99 36.93 37.82 38.02 37.69 38.48 39.34 43.42 45.25 46.74 48.98 51.03 52.98 54.48 57.89 59.77 61.18 61.84 61.48 62.02 62.06 61.63 59.77 58.00 58.31
25.10 18.55 18.56 26.35 30.83 28.44 25.87 25.56 30.19 31.76 29.90 30.13 29.55 28.09 30.23 30.88 31.61 33.24 33.51 33.25 32.50 32.82 33.76 34.62 35.49 36.71 38.93 38.47 38.94 40.08 40.44 42.12 44.66 46.36 48.09 51.11 52.70 54.36 56.65 57.40 59.24 60.74 61.48 61.47 61.51 60.64 59.14 58.07 57.62
23.41 19.15 19.62 22.11 25.81 26.37 23.90 20.45 26.54 30.06 31.07 31.67 31.05 29.68 29.75 30.03 29.51 30.73 31.73 31.09 30.80 30.89 32.03 33.94 35.57 36.72 37.66 38.11 40.06 41.74 42.42 42.78 43.62 44.82 45.79 49.98 52.60 53.54 54.59 55.11 56.58 58.91 59.83 60.16 61.25 60.88 59.58 57.31 57.38
15.70 28.17 26.54 24.46 15.53 9.52 23.93 8.95 21.90 26.38 28.33 30.22 28.74 27.49 27.97 27.32 29.32 30.04 30.03 29.63 29.84 30.82 31.82 32.94 35.28 36.45 37.24 38.50 39.19 39.97 40.36 40.50 42.71 44.35 46.52 50.60 52.47 52.87 54.14 54.48 55.35 57.53 59.62 58.73 59.91 60.78 60.22 58.80 55.97
23.60 29.03 26.38 25.09 10.81 15.83 15.28 9.85 19.46 25.45 25.07 24.57 26.34 28.23 27.80 27.59 27.77 28.11 28.59 29.35 29.99 30.66 30.63 33.09 35.05 35.87 37.36 37.80 39.20 40.01 41.04 43.00 43.91 44.56 44.75 47.80 50.21 52.84 54.36 54.20 54.59 57.02 59.01 59.96 59.62 59.02 59.38 59.47 58.04
30.76 23.72 22.77 20.42 11.26 4.49 10.43 10.61 15.98 19.92 22.83 23.30 26.04 26.91 27.89 27.32 27.93 28.00 28.76 29.13 28.82 29.63 30.11 31.32 32.27 34.41 35.44 36.01 38.75 39.82 41.00 44.16 43.12 43.65 44.88 47.87 49.78 51.77 52.37 53.38 53.93 55.33 57.65 58.58 59.76 60.35 59.71 59.22 59.05
23.29 11.79 2.44 3.51 3.71 7.53 7.71 12.72 17.37 22.75 24.50 24.29 24.78 25.76 26.56 27.73 26.53 26.37 26.26 26.60 27.21 27.66 28.67 30.49 32.30 31.63 33.59 35.69 37.71 39.19 41.97 43.86 42.63 42.95 45.26 47.01 48.71 50.83 50.38 51.36 52.32 54.49 54.56 57.17 58.24 59.87 60.03 59.90 58.81
21.12 13.56 5.45 -3.96 2.51 6.41 6.85 8.11 17.40 25.30 26.67 26.50 26.69 26.53 27.14 26.27 26.53 26.29 26.50 26.42 26.60 27.10 28.32 30.24 30.69 31.08 33.18 35.45 36.61 38.33 41.67 43.68 44.88 45.50 45.94 47.10 46.63 48.32 49.24 50.58 51.50 51.87 53.44 53.29 57.01 58.37 59.46 59.45 58.78
18.28 11.20 21.18 4.00 1.84 6.20 7.44 13.89 23.34 25.15 18.72 22.81 24.26 25.34 24.39 25.16 25.42 25.59 26.20 26.55 26.32 26.89 27.95 29.36 29.97 30.97 32.31 33.81 35.75 36.53 39.35 40.55 42.33 42.52 42.86 44.53 48.09 49.46 46.88 47.69 48.39 49.68 49.54 50.76 53.49 57.10 57.98 58.72 58.63
19.42 23.76 8.69 6.49 -1.27 -2.42 4.72 3.28 15.33 13.93 13.72 17.39 21.19 20.73 21.85 22.95 23.84 25.60 25.81 25.96 26.33 26.81 27.07 28.44 30.58 30.29 31.89 33.41 34.94 36.38 37.35 38.91 40.53 42.29 42.42 43.28 45.03 46.83 45.82 43.14 44.27 44.27 45.33 49.07 50.94 54.82 57.87 57.60 57.21
13.76 11.68 11.91 10.86 12.73 1.97 0.15 7.91 15.18 14.79 12.89 13.96 17.78 20.60 19.68 19.41 21.48 23.89 25.94 26.30 26.42 26.16 25.96 26.71 28.12 29.36 30.75 32.40 33.52 34.60 35.96 37.64 38.70 40.22 41.47 42.78 43.52 43.47 44.01 41.97 41.92 43.56 43.47 44.55 48.27 50.49 56.06 55.47 53.98
21.81 15.70 18.41 7.99 2.53 10.60 12.16 13.68 13.47 13.76 14.76 14.56 18.62 19.23 20.19 16.34 20.87 24.91 25.54 25.59 25.21 24.58 24.44 24.77 26.26 28.25 29.58 30.42 32.06 33.32 34.58 35.39 36.62 37.94 39.36 40.93 40.85 41.24 41.47 41.45 39.97 41.43 42.27 43.12 45.21 44.96 48.63 47.28 44.82
MSLP
1015.20 1014.64 1014.58 1014.80 1016.03 1016.13 1015.59 1014.18 1012.78 1012.54 1012.48 1012.50 1012.07 1012.31 1013.04 1013.87 1014.56 1016.10 1016.27 1016.03 1015.90 1015.56 1015.13 1014.73 1014.37 1013.92 1013.51 1013.67 1013.79 1014.01 1014.16 1014.33 1014.46 1014.71 1014.99 1015.13 1015.28 1015.54 1015.86 1016.06 1016.21 1016.16 1016.43 1016.54 1016.69 1016.97 1017.41 1017.61 1017.68
1015.27 1014.73 1014.56 1015.19 1016.08 1016.29 1015.26 1014.13 1013.92 1013.68 1013.25 1012.69 1012.36 1012.61 1013.27 1014.92 1015.33 1016.06 1016.37 1016.19 1016.03 1015.75 1015.35 1015.18 1014.77 1014.25 1013.94 1013.49 1013.68 1013.93 1014.09 1014.18 1014.46 1014.58 1014.61 1014.86 1015.08 1015.46 1015.78 1015.91 1016.05 1016.29 1016.30 1016.57 1016.68 1016.88 1017.21 1017.67 1017.71
1015.32 1015.17 1015.71 1015.99 1016.47 1016.21 1015.35 1014.83 1014.22 1014.05 1013.57 1013.41 1013.67 1013.77 1014.48 1015.85 1016.07 1016.58 1016.69 1016.36 1015.99 1016.07 1015.72 1015.45 1015.22 1014.80 1014.36 1013.98 1013.59 1013.77 1013.91 1014.07 1014.26 1014.32 1014.51 1014.69 1014.93 1015.26 1015.59 1015.78 1016.00 1016.14 1016.18 1016.41 1016.57 1016.82 1017.14 1017.50 1017.73
1015.36 1015.47 1016.15 1016.38 1016.40 1015.45 1015.75 1015.69 1014.85 1014.54 1014.18 1014.06 1014.49 1015.25 1015.89 1016.31 1016.56 1017.16 1016.86 1016.45 1016.19 1015.92 1015.71 1015.52 1015.48 1015.28 1015.06 1014.53 1014.13 1013.70 1013.72 1013.86 1014.11 1014.31 1014.42 1014.55 1014.73 1014.98 1015.39 1015.62 1015.91 1016.00 1016.08 1016.16 1016.35 1016.65 1017.05 1017.49 1017.73
1015.53 1016.27 1016.77 1016.80 1016.41 1015.97 1016.49 1016.12 1015.63 1015.56 1015.50 1015.65 1015.32 1016.12 1016.51 1017.18 1017.06 1017.00 1016.86 1016.58 1016.33 1016.09 1015.81 1015.64 1015.56 1015.60 1015.42 1015.08 1014.71 1014.23 1013.74 1013.75 1013.90 1014.11 1014.20 1014.34 1014.58 1014.76 1014.97 1015.31 1015.65 1015.78 1015.94 1016.12 1016.11 1016.39 1016.87 1017.29 1017.58
1016.30 1016.68 1017.42 1017.30 1016.74 1016.81 1016.98 1016.94 1016.56 1016.72 1016.59 1016.53 1016.41 1016.54 1016.71 1017.07 1016.77 1017.11 1016.83 1016.57 1016.33 1016.27 1015.95 1015.99 1015.82 1015.67 1015.39 1015.18 1015.02 1014.66 1014.11 1013.74 1013.81 1013.82 1013.92 1014.16 1014.40 1014.60 1014.74 1014.93 1015.12 1015.52 1015.69 1015.93 1016.05 1016.27 1016.67 1017.09 1017.41
1016.66 1017.41 1017.58 1017.26 1017.02 1017.27 1017.59 1017.38 1017.51 1017.47 1017.18 1017.17 1016.97 1017.03 1016.97 1017.09 1017.16 1016.90 1016.82 1016.79 1016.66 1016.47 1016.40 1016.34 1016.08 1015.94 1015.75 1015.45 1015.11 1014.86 1014.51 1013.92 1013.67 1013.60 1013.69 1013.88 1014.13 1014.36 1014.53 1014.66 1014.74 1014.99 1015.39 1015.71 1015.97 1016.28 1016.52 1016.94 1017.24
1017.17 1017.72 1018.02 1017.77 1017.92 1018.30 1018.28 1017.96 1017.93 1017.94 1017.62 1017.21 1016.88 1017.36 1017.43 1017.63 1017.49 1017.07 1016.88 1016.92 1017.04 1016.99 1016.92 1016.69 1016.40 1016.15 1015.90 1015.65 1015.27 1014.87 1014.59 1014.11 1013.73 1013.42 1013.42 1013.65 1013.79 1014.05 1014.22 1014.40 1014.52 1014.75 1014.97 1015.24 1015.67 1016.08 1016.42 1016.65 1017.08
1017.33 1018.34 1018.96 1018.88 1018.80 1018.90 1018.85 1018.87 1018.54 1018.20 1017.96 1017.74 1017.39 1017.45 1017.56 1017.38 1017.06 1017.29 1017.56 1017.62 1017.58 1017.47 1017.26 1016.92 1016.72 1016.33 1015.95 1015.56 1015.23 1014.92 1014.48 1014.04 1013.78 1013.26 1013.20 1013.30 1013.43 1013.56 1013.83 1014.06 1014.26 1014.46 1014.77 1014.98 1015.21 1015.72 1016.16 1016.53 1016.94
1018.40 1019.06 1019.22 1019.16 1019.24 1019.50 1019.36 1019.39 1019.19 1018.84 1018.58 1018.22 1017.83 1017.65 1017.48 1017.40 1017.57 1017.93 1018.16 1018.34 1018.19 1018.11 1017.86 1017.65 1017.25 1016.95 1016.42 1015.66 1015.20 1014.90 1014.43 1013.89 1013.63 1013.20 1012.88 1012.91 1013.05 1013.08 1013.27 1013.58 1013.84 1014.02 1014.42 1014.79 1015.03 1015.35 1015.79 1016.32 1016.77
1019.30 1019.54 1019.65 1019.64 1019.58 1019.76 1019.71 1019.58 1019.46 1019.37 1019.04 1018.35 1018.37 1018.07 1017.67 1017.79 1017.85 1018.30 1018.66 1018.78 1018.76 1018.60 1018.24 1018.02 1017.64 1017.20 1016.82 1016.20 1015.48 1014.85 1014.43 1014.00 1013.54 1013.27 1012.57 1012.32 1012.48 1012.74 1012.93 1013.14 1013.48 1013.79 1014.04 1014.50 1014.89 1015.28 1015.68 1016.11 1016.61
1019.71 1019.72 1019.73 1019.68 1019.69 1019.87 1019.94 1019.90 1019.82 1019.54 1019.08 1018.41 1018.39 1017.94 1017.75 1017.87 1018.26 1018.70 1018.85 1018.83 1018.75 1018.58 1018.37 1018.09 1017.80 1017.36 1016.88 1016.41 1015.72 1015.05 1014.51 1013.98 1013.51 1013.10 1012.80 1012.12 1011.96 1012.14 1012.32 1012.54 1012.77 1013.13 1013.51 1014.06 1014.65 1015.18 1015.60 1015.91 1016.20
1020.06 1020.19 1019.83 1019.55 1019.63 1019.79 1019.93 1020.09 1020.19 1019.12 1018.56 1018.08 1017.86 1017.83 1018.06 1018.10 1018.51 1018.69 1018.68 1018.73 1018.63 1018.55 1018.40 1018.16 1017.79 1017.46 1016.81 1016.25 1015.69 1015.02 1014.38 1013.89 1013.38 1012.96 1012.64 1012.49 1011.73 1011.57 1011.56 1011.80 1012.04 1012.29 1012.65 1013.10 1013.86 1014.54 1015.21 1015.65 1015.95
1020.73 1020.57 1020.07 1019.66 1019.67 1019.78 1020.03 1019.81 1020.08 1018.63 1017.87 1017.75 1017.82 1017.87 1017.93 1018.42 1018.51 1018.60 1018.60 1018.61 1018.56 1018.32 1018.05 1017.79 1017.62 1017.20 1016.66 1016.20 1015.67 1015.12 1014.38 1013.73 1013.17 1012.80 1012.40 1012.17 1012.00 1011.54 1010.97 1011.21 1011.36 1011.55 1011.68 1011.98 1012.84 1013.36 1014.43 1015.17 1015.52
1021.06 1021.11 1020.25 1019.97 1019.80 1019.84 1019.92 1019.80 1019.63 1018.54 1018.30 1017.93 1017.69 1017.57 1018.19 1018.37 1018.41 1018.57 1018.60 1018.53 1018.33 1018.08 1017.85 1017.63 1017.23 1016.77 1016.56 1016.10 1015.45 1014.82 1014.18 1013.44 1013.00 1012.48 1012.19 1011.87 1011.72 1011.50 1011.05 1010.52 1010.58 1010.60 1010.83 1011.41 1011.78 1012.72 1013.52 1014.56 1015.03
1021.62 1021.81 1021.70 1020.54 1020.15 1019.83 1020.13 1019.68 1018.74 1018.56 1018.53 1018.22 1017.85 1018.06 1018.24 1018.38 1018.37 1018.55 1018.45 1018.44 1018.25 1017.97 1017.69 1017.33 1016.96 1016.57 1016.08 1015.70 1015.08 1014.35 1013.70 1013.15 1012.53 1012.10 1011.74 1011.51 1011.31 1011.13 1010.84 1010.51 1010.01 1010.56 1009.21 1010.16 1010.91 1011.68 1012.64 1013.50 1014.27
1023.43 1023.66 1023.00 1021.88 1020.70 1020.68 1020.53 1019.39 1018.07 1018.38 1018.22 1018.21 1018.11 1018.17 1018.26 1018.50 1018.71 1018.67 1018.56 1018.41 1018.19 1017.85 1017.54 1017.13 1016.85 1016.41 1015.88 1015.29 1014.67 1013.97 1013.25 1012.72 1012.09 1011.61 1011.29 1010.96 1010.84 1010.70 1010.47 1010.07 1010.02 1009.94 1010.31 1010.39 1009.70 1010.43 1011.70 1012.58 1013.42
1024.47 1024.65 1023.70 1023.03 1021.61 1021.41 1020.68 1019.68 1017.79 1018.08 1018.18 1018.23 1018.12 1018.28 1018.63 1018.83 1018.82 1018.68 1018.47 1018.24 1018.02 1017.73 1017.44 1017.09 1016.73 1016.35 1015.76 1015.11 1014.58 1013.84 1013.00 1012.14 1011.51 1011.08 1010.69 1010.36 1010.19 1010.24 1010.04 1009.70 1009.30 1009.25 1009.83 1009.85 1010.05 1010.43 1010.77 1011.63 1012.68
1024.22 1024.44 1024.13 1023.20 1022.08 1021.98 1020.87 1019.81 1018.40 1017.89 1017.80 1018.09 1018.31 1018.58 1018.81 1019.03 1018.81 1018.69 1018.44 1018.25 1017.96 1017.70 1017.32 1016.92 1016.54 1016.10 1015.48 1014.86 1014.42 1013.71 1012.89 1012.20 1011.08 1010.47 1009.91 1009.65 1009.43 1009.50 1009.55 1009.23 1008.96 1008.79 1008.68 1008.67 1009.60 1010.22 1011.01 1011.56 1012.43
1024.16 1024.47 1024.22 1023.38 1022.67 1023.04 1021.38 1020.07 1018.12 1017.61 1017.77 1018.02 1018.41 1018.74 1019.20 1019.27 1019.10 1018.84 1018.58 1018.25 1018.03 1017.76 1017.40 1016.68 1016.15 1015.63 1015.05 1014.79 1014.15 1013.38 1012.47 1011.62 1011.02 1009.95 1009.34 1008.83 1008.66 1008.69 1008.96 1008.85 1008.61 1008.37 1008.13 1008.54 1008.46 1009.16 1010.18 1011.01 1011.34
1024.11 1024.49 1024.47 1024.61 1023.98 1023.30 1022.61 1020.99 1018.80 1018.09 1017.90 1018.17 1018.55 1019.26 1019.62 1019.67 1019.44 1018.88 1018.64 1018.40 1018.07 1017.67 1017.17 1016.50 1015.68 1015.28 1014.64 1014.32 1013.55 1012.54 1011.67 1010.87 1010.08 1009.33 1008.77 1008.23 1007.95 1007.96 1008.32 1008.45 1008.35 1008.21 1008.11 1007.70 1007.77 1007.84 1008.88 1009.92 1010.74
1024.33 1024.09 1024.47 1025.07 1025.84 1025.63 1024.28 1023.22 1020.26 1018.81 1018.66 1018.85 1019.36 1019.79 1019.99 1020.05 1019.66 1019.43 1018.97 1018.46 1017.96 1017.33 1016.92 1016.28 1015.39 1014.77 1014.14 1013.72 1012.97 1012.04 1011.05 1010.03 1009.27 1008.73 1008.09 1007.53 1007.21 1007.35 1007.62 1007.91 1007.95 1007.75 1007.65 1007.53 1007.50 1007.73 1008.05 1008.78 1009.90
1024.46 1024.32 1024.80 1025.89 1027.34 1027.23 1025.82 1025.39 1020.97 1019.78 1019.60 1019.63 1019.89 1020.15 1020.23 1020.18 1020.12 1019.68 1019.21 1018.63 1017.91 1017.19 1016.66 1015.99 1015.10 1014.44 1013.74 1013.29 1012.48 1011.41 1010.18 1009.19 1008.38 1007.99 1007.64 1007.07 1006.62 1006.69 1006.99 1007.25 1007.49 1007.31 1007.10 1006.99 1007.08 1007.59 1007.60 1007.77 1008.67
1024.66 1024.96 1025.75 1026.87 1028.06 1028.40 1026.97 1026.00 1022.10 1020.69 1019.92 1020.14 1020.29 1020.39 1020.48 1020.36 1020.12 1019.81 1019.27 1018.54 1017.84 1017.14 1016.54 1015.78 1014.79 1013.87 1013.26 1012.69 1011.77 1010.63 1009.27 1007.72 1007.41 1007.23 1006.98 1006.34 1006.02 1006.08 1006.44 1006.74 1006.92 1006.91 1006.58 1006.48 1006.22 1006.58 1006.60 1006.79 1007.62
1025.48 1026.81 1028.49 1029.22 1029.53 1028.92 1027.35 1026.38 1022.27 1020.81 1020.47 1020.56 1020.91 1020.74 1020.60 1020.23 1020.03 1019.41 1018.80 1018.24 1017.64 1016.97 1016.25 1015.44 1014.47 1013.57 1012.86 1012.07 1011.13 1010.01 1008.30 1006.97 1006.82 1006.57 1006.45 1005.80 1005.64 1005.75 1006.08 1006.27 1006.44 1006.47 1006.30 1006.04 1006.04 1005.78 1005.83 1006.18 1006.64
1026.84 1027.90 1030.06 1031.21 1030.96 1029.72 1027.98 1026.22 1021.88 1020.72 1020.67 1020.85 1020.96 1020.76 1020.45 1020.09 1019.60 1019.12 1018.62 1017.96 1017.40 1016.72 1015.97 1015.27 1014.34 1013.29 1012.44 1011.56 1010.67 1009.66 1008.10 1007.15 1006.64 1006.34 1006.11 1005.77 1005.75 1005.74 1005.78 1006.00 1006.24 1006.23 1006.08 1005.95 1006.07 1005.19 1005.10 1005.45 1005.76
1027.54 1028.59 1029.28 1030.88 1031.56 1030.92 1028.11 1025.01 1022.05 1021.40 1021.27 1021.25 1021.29 1020.67 1020.61 1020.17 1019.58 1019.07 1018.47 1017.85 1017.21 1016.50 1015.68 1015.00 1014.04 1012.97 1011.98 1011.11 1010.33 1009.39 1008.14 1007.30 1006.77 1006.44 1006.14 1006.18 1006.00 1005.95 1006.02 1006.14 1006.15 1005.97 1005.81 1005.70 1005.35 1004.90 1004.82 1004.77 1005.20
1027.52 1028.57 1029.83 1031.20 1031.80 1031.15 1028.21 1026.09 1023.56 1022.55 1022.23 1022.15 1021.53 1021.50 1020.92 1020.28 1019.63 1018.91 1018.44 1017.87 1017.21 1016.50 1015.64 1014.80 1013.99 1013.05 1011.99 1010.95 1010.05 1009.11 1008.07 1007.34 1007.01 1006.47 1006.41 1006.51 1006.35 1006.32 1006.29 1006.41 1006.30 1006.02 1005.67 1005.25 1005.37 1005.16 1004.31 1004.48 1004.80
1028.03 1028.72 1029.70 1030.59 1030.96 1031.01 1029.29 1024.94 1022.16 1022.22 1022.64 1022.75 1022.23 1021.75 1021.03 1020.64 1019.52 1018.89 1018.35 1017.94 1017.35 1016.60 1015.80 1014.96 1014.00 1013.09 1012.11 1011.18 1010.08 1009.00 1008.12 1007.46 1007.04 1006.83 1007.01 1006.80 1006.80 1006.69 1006.47 1006.57 1006.50 1006.09 1005.77 1005.34 1004.58 1003.91 1003.60 1003.75 1004.41
1026.49 1027.40 1028.37 1029.61 1030.02 1029.70 1028.94 1023.97 1021.18 1021.68 1022.31 1022.46 1022.20 1021.69 1021.09 1020.53 1019.59 1018.91 1018.40 1017.88 1017.35 1016.77 1016.00 1015.16 1014.23 1013.24 1012.26 1011.21 1010.16 1009.19 1008.31 1007.78 1007.47 1007.40 1007.17 1006.95 1007.01 1006.89 1006.62 1006.54 1006.54 1006.20 1005.86 1005.50 1004.99 1004.35 1003.20 1003.87 1004.72
Wind_Speed
11 10 2 4 5 5 3 6 3 6 5 2 3 5 4 4 3 2 6 7 6 7 10 14 22 15 8 9 8 7 10 12 14 14 13 12 13 13 13 12 10 11 12 12 12 13 12 11 11
5 7 4 2 5 2 6 4 8 4 1 6 7 6 7 4 4 4 5 10 6 7 8 12 20 19 13 9 9 8 9 12 13 14 14 14 14 14 14 13 12 11 12 12 13 14 14 12 12
5 3 4 4 3 4 3 3 4 3 5 4 5 6 5 3 4 4 4 9 8 6 5 10 18 21 17 12 9 9 10 10 13 13 14 15 15 15 14 13 12 12 12 14 15 14 14 13 12
3 5 5 4 6 7 5 3 4 4 7 9 2 6 4 6 5 4 7 8 8 7 5 9 15 17 19 20 17 9 10 10 12 14 14 15 14 15 14 14 13 12 12 14 15 14 15 14 14
3 3 1 2 5 1 6 4 6 6 5 7 5 3 4 6 7 7 7 7 7 8 5 6 12 15 14 15 19 18 10 11 13 14 14 14 14 16 16 15 14 14 13 12 14 16 16 16 15
4 4 3 3 5 6 3 6 3 5 5 5 7 3 1 4 10 5 7 8 8 6 7 6 8 12 16 15 12 16 15 10 13 13 14 14 14 14 16 16 15 14 14 14 15 16 18 17 17
5 4 4 3 5 5 3 2 5 3 5 4 2 1 1 8 6 7 7 8 8 8 8 7 7 8 10 13 13 9 15 14 11 13 13 13 14 14 15 15 16 16 15 16 16 17 18 18 18
4 4 3 3 5 3 5 4 1 6 2 3 2 2 5 5 5 8 8 8 8 9 10 8 7 7 7 6 12 11 8 14 14 10 11 12 12 13 13 13 14 16 16 15 18 18 19 19 18
3 5 1 5 5 4 6 6 7 4 2 3 2 2 4 5 6 8 6 7 9 11 11 9 10 8 7 6 6 11 10 9 14 10 10 9 7 9 10 12 13 16 15 15 19 19 19 17 16
5 4 1 3 1 2 6 7 7 5 8 3 5 7 7 7 7 8 8 8 10 10 11 11 13 13 12 7 6 6 9 6 6 7 8 6 7 8 10 11 15 16 14 14 17 19 17 13 7
4 3 2 2 3 3 5 7 6 5 6 3 6 6 8 6 8 8 7 5 5 6 6 8 11 11 11 11 6 4 3 5 4 8 8 9 6 5 6 6 7 8 11 7 11 12 8 9 7
3 4 3 3 3 4 5 5 8 6 9 9 7 2 3 6 6 6 6 6 6 7 7 7 8 11 11 8 8 6 4 5 6 5 7 6 6 7 8 6 8 8 6 9 8 7 8 9 10
3 3 5 4 6 4 6 6 7 13 12 11 4 5 5 3 5 4 4 3 4 5 6 7 8 9 11 11 8 9 6 5 7 6 6 6 6 9 8 8 8 9 9 10 10 9 8 9 10
2 4 7 6 4 4 4 5 2 8 6 9 6 6 5 6 4 4 5 5 5 6 7 5 7 8 9 9 11 10 9 9 5 7 7 7 6 8 9 10 10 10 11 11 11 11 10 9 9
2 4 7 5 4 3 2 9 6 9 8 7 7 6 6 5 6 5 6 6 6 8 7 8 13 11 8 12 11 10 9 10 7 6 7 8 7 8 8 7 9 13 12 15 12 11 10 9 8
4 5 5 3 4 2 6 9 10 9 6 9 8 5 4 5 5 6 7 7 6 6 10 11 12 14 13 11 10 10 10 9 9 8 7 8 9 9 7 7 10 9 6 13 12 13 12 11 11
8 1 4 10 6 4 3 13 12 7 8 6 4 3 4 6 6 6 6 6 6 7 9 11 12 13 13 14 11 11 12 9 9 8 8 8 7 7 8 6 6 8 8 6 11 11 14 12 11
4 2 3 5 6 9 11 17 23 7 6 5 5 3 5 5 5 7 8 7 8 7 6 10 10 13 14 8 10 9 10 9 9 9 9 8 6 7 8 8 9 8 9 9 7 10 9 10 9
3 3 6 7 9 7 14 20 23 13 5 6 4 1 4 6 6 6 8 8 8 8 9 10 13 14 12 8 9 9 8 11 9 9 11 12 9 9 9 8 8 9 9 8 12 12 12 5 5
3 2 7 6 3 8 11 17 17 8 6 6 5 3 6 7 7 9 10 9 8 8 11 12 14 13 11 9 10 10 10 10 12 10 10 12 11 10 9 8 7 8 7 11 13 12 8 6 13
3 4 3 8 5 6 6 10 5 3 5 5 2 3 5 8 9 12 13 10 8 10 11 14 13 15 15 15 12 11 10 10 10 11 9 10 11 9 8 7 8 8 7 7 13 14 13 10 10
2 1 3 8 6 3 6 7 7 3 5 3 5 7 8 7 9 9 13 14 13 13 10 13 13 15 15 16 14 15 13 12 10 10 7 7 8 8 8 8 7 9 8 8 9 11 12 10 10
8 8 10 6 3 4 6 4 10 1 4 1 6 9 9 7 9 12 13 15 15 13 12 12 12 14 14 15 15 13 14 13 10 10 11 10 6 7 8 6 6 7 8 11 12 13 14 12 12
5 5 7 4 4 3 5 6 10 4 3 3 6 9 10 9 11 11 12 14 14 13 12 11 13 13 14 15 15 16 20 14 9 9 9 6 4 5 6 5 5 5 7 10 12 13 17 16 16
8 7 6 8 6 7 4 2 13 3 4 3 7 9 8 11 11 12 13 13 13 15 14 13 13 15 16 15 13 16 17 10 11 9 9 6 4 3 5 5 5 2 3 6 8 14 13 14 14
3 6 7 5 4 7 2 7 9 6 5 3 6 8 8 12 11 13 14 14 14 15 13 15 14 15 14 13 12 14 11 6 3 4 3 3 1 2 1 2 4 5 4 2 9 7 10 13 15
4 2 3 3 1 3 5 9 8 3 5 6 8 9 11 12 11 11 13 13 14 14 14 14 16 15 15 14 12 12 9 7 6 4 4 4 4 3 2 2 5 5 6 6 4 9 10 11 15
6 2 4 4 3 7 8 7 10 6 8 7 9 9 11 9 9 9 11 13 12 13 13 14 13 15 15 15 12 9 9 7 7 6 7 7 6 5 4 3 4 5 6 8 4 9 13 12 8
2 2 2 4 5 5 5 10 9 9 8 7 8 10 10 10 7 7 10 10 12 13 13 13 13 14 12 11 12 11 8 7 6 5 4 3 4 3 3 3 4 4 5 6 7 7 12 11 8
6 8 5 6 7 5 3 14 4 7 8 7 10 10 8 7 7 7 9 11 11 12 12 13 13 13 12 12 11 10 9 8 6 5 5 4 3 3 3 4 4 3 4 5 4 3 6 10 9
Wind_Direction
324 308 263 42 71 75 246 257 254 7 42 314 287 70 107 34 29 168 215 23 26 26 20 10 4 339 196 176 176 189 185 180 175 175 177 176 172 171 174 171 166 162 167 163 162 160 161 155 146
324 317 27 58 92 106 266 306 100 68 352 353 16 359 43 83 42 94 32 340 36 26 34 22 8 3 337 199 192 194 199 192 190 184 180 181 182 181 184 182 177 178 174 173 171 167 163 158 155
299 213 78 106 138 197 215 27 97 113 83 69 30 35 42 34 23 96 339 360 1 29 42 36 24 12 360 332 203 203 206 200 198 195 189 189 187 189 191 187 189 187 184 180 177 176 165 164 166
2 13 11 105 218 269 63 332 24 6 23 48 88 50 55 355 76 41 7 0 1 4 27 45 32 25 8 3 346 229 208 207 207 205 201 197 195 192 197 193 197 197 196 190 183 176 168 155 151
28 68 63 199 235 175 37 4 15 19 39 30 22 348 95 85 88 52 19 6 355 344 21 34 34 24 20 9 355 345 236 216 211 211 209 207 204 200 194 194 197 197 201 194 176 174 165 161 159
16 95 63 232 243 105 59 8 82 25 11 3 45 28 149 97 54 30 23 359 348 355 4 29 25 17 5 359 359 344 343 262 228 217 216 215 213 210 196 193 191 198 199 189 173 162 161 160 161
109 88 214 297 262 75 6 337 65 45 356 35 187 354 22 52 40 27 26 12 5 7 19 8 13 9 2 346 336 343 325 327 287 233 217 213 214 216 207 199 196 194 195 191 183 170 168 167 167
94 100 341 4 323 87 13 16 37 63 310 291 126 156 288 53 37 24 17 14 16 9 10 357 0 352 345 340 325 321 311 312 310 273 223 212 210 211 208 205 204 200 194 193 185 177 177 172 171
23 65 21 346 14 285 358 19 349 295 273 346 274 301 336 352 38 41 23 18 12 4 355 347 342 334 327 324 322 323 316 296 281 277 245 220 217 214 207 207 200 205 200 189 177 179 179 177 174
69 92 141 22 45 344 324 21 323 339 321 291 304 331 352 23 28 36 35 15 3 352 347 1 351 345 333 319 322 312 307 304 299 273 251 217 208 206 205 204 203 202 196 195 182 179 178 169 173
345 108 352 38 50 25 328 334 337 350 315 214 310 305 352 13 14 49 29 19 349 340 344 345 340 337 336 327 311 308 311 298 296 297 270 232 216 208 204 201 208 209 197 197 186 181 179 174 167
93 83 53 300 343 336 312 290 314 233 244 270 286 295 349 340 9 39 25 6 1 346 330 329 329 328 322 317 313 292 300 300 294 284 283 272 223 213 207 202 201 199 191 194 192 186 181 177 174
49 326 315 299 312 267 284 266 260 281 267 280 261 314 303 318 67 42 14 5 342 329 312 312 317 315 310 307 304 305 286 275 283 286 283 283 274 222 217 210 204 197 188 190 187 182 182 184 181
275 277 268 273 229 232 268 270 70 274 267 296 271 260 294 86 53 19 359 335 334 309 301 287 293 289 299 306 308 302 300 286 265 272 271 273 273 288 217 218 209 202 194 187 188 182 180 188 185
265 329 329 221 211 231 78 317 209 263 275 255 263 272 81 47 29 354 324 318 312 322 314 328 321 314 305 302 297 293 291 291 279 265 263 262 261 269 285 254 236 208 199 195 183 182 179 181 193
342 39 9 298 174 224 89 270 268 287 268 275 278 89 50 9 350 334 315 337 331 330 326 318 314 306 299 290 286 284 283 284 283 273 259 249 254 256 262 257 253 262 212 196 190 181 181 186 194
9 253 308 323 325 359 189 291 268 265 296 291 100 84 35 355 333 324 328 322 319 311 317 320 322 313 308 301 294 286 280 276 272 270 265 239 232 246 254 251 230 218 222 233 198 187 186 188 193
263 346 284 271 287 321 290 274 286 283 263 180 144 77 25 329 314 309 323 329 323 312 315 319 316 317 317 321 318 313 293 271 267 265 262 238 230 233 251 251 244 219 219 205 174 197 216 195 194
250 250 258 259 269 328 276 283 284 293 166 165 140 39 335 314 297 332 331 319 314 319 315 316 313 304 298 303 303 295 286 299 276 267 253 245 232 222 238 247 257 224 209 197 192 190 178 134 173
241 253 282 290 344 323 296 285 284 247 203 173 147 350 321 316 322 320 324 324 321 313 312 307 306 302 304 304 290 277 278 275 283 273 273 241 221 221 222 235 251 243 223 205 182 175 179 169 165
285 190 278 268 333 269 291 294 324 28 106 137 149 30 325 326 317 331 323 318 309 308 307 304 309 306 297 299 290 278 268 267 268 268 260 248 216 211 210 219 243 250 226 204 197 179 186 188 180
301 242 308 312 38 272 66 278 297 199 182 155 32 345 323 299 334 316 317 315 311 307 303 296 301 300 300 300 292 280 271 270 266 268 263 242 202 205 206 203 238 251 239 206 206 199 187 158 170
240 325 292 289 148 19 325 63 269 184 225 202 350 330 318 322 314 319 316 310 308 311 305 302 302 302 296 299 291 283 274 260 254 257 267 251 217 204 199 197 224 256 239 230 205 206 195 178 174
301 332 22 68 100 9 245 114 280 233 201 344 311 313 305 306 320 308 308 311 312 312 305 298 298 298 300 298 296 291 286 241 233 246 252 239 204 183 186 207 234 259 233 237 222 206 202 193 194
38 42 353 356 7 226 244 348 243 214 132 189 280 290 298 313 310 313 322 321 318 315 310 309 312 303 301 301 302 299 299 245 237 245 259 214 202 183 222 220 224 246 324 242 237 215 201 196 195
46 124 143 249 283 270 16 229 254 182 156 220 275 277 304 317 319 323 322 327 322 314 311 314 307 303 303 305 303 299 316 336 5 23 341 24 281 184 148 252 261 270 281 287 260 239 213 195 195
267 68 166 107 139 9 261 289 297 180 314 322 296 342 313 314 315 316 323 328 321 318 318 316 311 308 308 308 302 301 321 343 347 4 20 2 26 357 31 329 298 288 278 253 273 245 213 204 197
141 170 33 8 346 301 287 279 244 268 265 304 335 299 287 285 300 325 327 330 324 320 319 318 313 314 310 307 306 303 313 346 339 2 7 353 343 356 354 337 284 279 280 278 215 252 206 191 184
19 346 14 127 152 196 294 265 225 220 207 238 276 269 272 279 300 321 326 323 322 321 324 321 322 316 315 313 311 311 320 332 342 358 332 328 325 341 326 301 281 275 290 289 284 280 203 192 171
165 189 160 130 271 228 196 267 236 193 203 206 258 268 280 264 294 315 328 331 325 327 325 323 323 322 320 317 317 319 326 335 340 335 322 324 339 346 331 314 314 297 300 302 268 273 162 140 127